カタログに戻る

OPS 0054

DMSP 5A F1

運用中気象PO
NORAD 4331·PAYLOAD·🇺🇸 United States

打ち上げ Feb 11, 1970 から Vandenberg Space Force Base

Loading…

次のパス (今後24時間)

TLE

最新Source: Space-Track

元期: Sep 14, 2026, 06:22 UTC

1 04331U 70012A   26257.26597128  .00000132  00000-0  62195-4 0  9996
2 04331  99.0126  79.6544 0058152  69.3390 291.4016 14.34671577949950

AllMySatでOPS 0054をリアルタイム追跡

Download on the App Store